GW2214 Weather Reports


Display with metric or nautical units.
time (UTC)temp
F
wind
direction
speed
MPH
gust
MPH
rain 1hr
in
rain 24hr
in
rain mn
in
humidity
%
barometer
mb
20260510163022 73 235 0.0 0.0 0.00 0.00 0.00 64 1000.7
20260510161518 72 294 0.0 0.0 0.00 0.00 0.00 63 1000.8
20260510160014 71 240 0.0 0.0 0.00 0.00 0.00 60 1000.8
20260510154513 71 280 0.0 0.0 0.00 0.00 0.00 63 1000.9
20260510153011 70 314 0.0 0.0 0.00 0.00 0.00 66 1000.9
20260510151508 69 305 0.0 0.0 0.00 0.00 0.00 66 1000.9
20260510150005 69 198 0.0 0.0 0.00 0.00 0.00 67 1000.7
20260510144502 68 291 0.0 0.0 0.00 0.00 0.00 72 1000.8
20260510143058 66 245 0.0 0.0 0.00 0.00 0.00 76 1000.8
20260510141557 64 278 0.0 0.0 0.00 0.00 0.00 80 1000.9
20260510140050 63 263 0.0 0.0 0.00 0.00 0.00 81 1000.9
20260510134549 61 204 0.0 0.0 0.00 0.00 0.00 86 1000.8
20260510133042 59 204 0.0 0.0 0.00 0.00 0.00 90 1000.7
20260510131538 58 216 0.0 0.0 0.00 0.00 0.00 96 1000.7
20260510130034 56 216 0.0 0.0 0.00 0.00 0.00 97 1000.8
20260510124535 55 163 0.0 0.0 0.00 0.00 0.00 97 1000.8
20260510123028 54 106 0.0 0.0 0.00 0.00 0.00 97 1000.7
20260510121526 53 51 0.0 0.0 0.00 0.00 0.00 97 1000.4
20260510120024 53 44 0.0 3.0 0.00 0.00 0.00 97 1000.2
20260510114524 52 21 0.0 3.0 0.00 0.00 0.00 96 1000.1
20260510113034 52 39 0.0 3.0 0.00 0.00 0.00 96 999.7
20260510111524 51 28 3.0 8.0 0.00 0.00 0.00 96 999.8
20260510110033 51 357 0.0 0.0 0.00 0.00 0.00 96 999.9
20260510104518 50 13 0.0 0.0 0.00 0.00 0.00 96 999.5
20260510103020 50 351 0.0 5.0 0.00 0.00 0.00 96 999.1
20260510101518 50 18 0.0 4.0 0.00 0.00 0.00 96 999.0
20260510100016 50 3 3.0 5.0 0.00 0.00 0.00 96 999.0
20260510094518 49 14 3.0 8.0 0.00 0.00 0.00 95 998.8
20260510093014 49 20 3.0 8.0 0.00 0.00 0.00 95 998.7
20260510091511 49 7 0.0 7.0 0.00 0.00 0.00 95 998.7
20260510090013 49 5 1.0 4.0 0.00 0.00 0.00 95 999.0
20260510084507 49 338 0.0 1.0 0.00 0.00 0.00 94 998.8
20260510083002 50 328 0.0 4.0 0.00 0.00 0.00 94 999.0
20260510081502 51 37 1.0 5.0 0.00 0.00 0.00 94 998.3
20260510080103 51 41 1.0 4.0 0.00 0.00 0.00 94 998.3
20260510074604 51 41 1.0 3.0 0.00 0.00 0.00 94 998.3
20260510073057 51 41 2.0 4.0 0.00 0.00 0.00 93 998.1
20260510071555 52 74 1.0 3.0 0.00 0.00 0.00 93 997.9
20260510070054 53 240 2.0 3.0 0.00 0.00 0.00 93 997.7
20260510064603 53 112 2.0 5.0 0.00 0.00 0.00 93 997.5
20260510063050 53 105 2.0 4.0 0.00 0.00 0.00 93 997.7
20260510061550 53 106 1.0 3.0 0.00 0.00 0.00 93 997.8
20260510060027 53 240 2.0 4.0 0.00 0.00 0.00 93 997.7
20260510054525 53 98 1.0 3.0 0.00 0.00 0.00 92 998.0
20260510053023 53 98 2.0 5.0 0.00 0.00 0.00 92 998.0
20260510051522 53 240 1.0 4.0 0.00 0.00 0.00 92 998.2
20260510050025 53 240 1.0 4.0 0.00 0.00 0.00 92 998.2
20260510044524 53 77 1.0 3.0 0.00 0.00 0.00 92 998.3
20260510043021 53 79 0.0 3.0 0.00 0.00 0.00 91 998.4
20260510041519 54 80 1.0 3.0 0.00 0.00 0.00 92 998.5
20260510040013 54 79 0.0 2.0 0.00 0.00 0.00 91 998.5
20260510034512 54 240 0.0 2.0 0.00 0.00 0.00 91 998.4
20260510033012 54 80 0.0 1.0 0.00 0.00 0.00 91 998.2
20260510031514 54 80 0.0 3.0 0.00 0.00 0.00 91 998.3
20260510030011 54 80 1.0 3.0 0.00 0.00 0.00 91 998.1
20260510024511 54 79 0.0 3.0 0.00 0.00 0.00 90 997.9
20260510023009 55 77 1.0 3.0 0.00 0.00 0.00 90 998.1
20260510021513 55 77 1.0 4.0 0.00 0.00 0.00 90 998.0
20260510020008 55 77 1.0 4.0 0.00 0.00 0.00 90 998.0
20260510014507 55 79 0.0 4.0 0.00 0.00 0.00 89 997.8
20260510013007 55 81 0.0 4.0 0.00 0.00 0.00 89 997.9
20260510011509 56 240 2.0 7.0 0.00 0.00 0.00 88 997.7
20260510010005 56 240 1.0 8.0 0.00 0.00 0.00 88 997.7
20260510004505 56 120 1.0 7.0 0.00 0.00 0.00 87 997.6
20260510003018 56 240 3.0 5.0 0.00 0.00 0.00 86 997.5
20260510001504 57 240 0.0 2.0 0.00 0.00 0.00 84 997.5
20260510000004 57 92 1.0 3.0 0.00 0.00 0.00 85 997.5
20260509234505 58 93 0.0 1.0 0.00 0.00 0.00 84 997.6
20260509233003 58 92 0.0 2.0 0.00 0.00 0.00 83 997.6
20260509231504 58 240 0.0 3.0 0.00 0.00 0.00 83 997.5
20260509230002 58 80 1.0 6.0 0.00 0.00 0.00 83 997.3
20260509224501 58 66 1.0 4.0 0.00 0.00 0.00 85 997.4
20260509223002 57 72 1.0 6.0 0.00 0.00 0.00 86 997.4
20260509221600 57 79 2.0 5.0 0.00 0.00 0.00 87 997.4
20260509220109 56 78 1.0 9.0 0.00 0.00 0.00 88 997.5
20260509214602 56 61 1.0 4.0 0.00 0.00 0.00 88 997.6
20260509213059 56 54 0.0 7.0 0.00 0.00 0.00 89 997.7
20260509211559 56 24 4.0 8.0 0.00 0.00 0.00 88 997.6
20260509210058 57 14 3.0 7.0 0.00 0.00 0.00 85 997.4
20260509204604 58 3 3.0 6.0 0.00 0.00 0.00 83 997.6
20260509203138 58 6 3.0 8.0 0.00 0.00 0.00 83 997.7
20260509201614 57 338 2.0 12.0 0.00 0.00 0.00 84 997.6
20260509194552 56 353 0.0 0.0 0.00 0.00 0.00 88 997.6
20260509193059 56 12 0.0 0.0 0.00 0.00 0.00 88 997.9
20260509191558 56 343 0.0 0.0 0.00 0.00 0.00 87 998.1
20260509190046 56 22 0.0 0.0 0.00 0.00 0.00 85 998.4
20260509184545 56 340 0.0 0.0 0.00 0.00 0.00 84 998.6
20260509183048 56 332 0.0 0.0 0.00 0.00 0.00 82 998.5
20260509181543 57 322 0.0 0.0 0.00 0.00 0.00 80 998.6
20260509180043 58 326 0.0 0.0 0.00 0.00 0.00 78 998.8
20260509174542 59 316 0.0 0.0 0.00 0.00 0.00 76 998.8
20260509173042 60 325 0.0 0.0 0.00 0.00 0.00 76 998.6
20260509171540 60 351 0.0 0.0 0.00 0.00 0.00 75 998.4
20260509170039 60 320 0.0 0.0 0.00 0.00 0.00 74 998.6
20260509164539 60 316 0.0 0.0 0.00 0.00 0.00 72 998.6